Terminal Aerodrome Forecast
Issued by NWS

Home | Current Version | Previous Version | Text Only | Print | Product List | Glossary On
Versions: 1 2 3 4 5 6 7 8 9 10 11 12 13 14 15 16 17 18 19 20 21 22 23 24 25 26 27 28 29 30 31 32 33 34 35 36 37 38 39 40 41 42 43 44
000
FTUS45 KGJT 010534
TAFEGE
TAF
KEGE 010534Z 0106/0206 VRB03KT P6SM VCFG SCT025 SCT060
     FM010900 00000KT 3SM BR SCT006 BKN015
     FM011600 VRB03KT P6SM FEW020 SCT050
     FM011800 26005KT P6SM SCT050 BKN100
     FM020100 VRB03KT P6SM BKN070
      AMD LTD TO CLD VIS AND WIND TIL 011400=

USA.gov is the U.S. government's official web portal to all federal, state and local government web resources and services.